User: anonymous   Login
Location: Trois-Rivi�res
(46.3500°N, 72.5500°W)
Time: 23:14:08
(UTC-04:00)
Language:

Cosmos 1544 - Orbit

View from above orbital plane
View from above orbital plane
View from above satellite
View from above satellite

Ground track
Ground track

The orbit data is extracted from the following two-line orbital elements,

1 14819U 84027A   16273.13715512  .00003191  00000-0  12664-3 0  9994
2 14819  82.4823 289.9531 0013261 234.2505 125.7500 15.24916058776015
Epoch (UTC): 29 September 2016 03:17:30
Eccentricity: 0.0013261
inclination: 82.4823°
perigee height: 482 km
apogee height: 500 km
right ascension of ascending node: 289.9531°
argument of perigee: 234.2505°
revolutions per day: 15.24916058
mean anomaly at epoch: 125.7500°
orbit number at epoch: 77601

The dashed part of the orbit path shows where the satellite is in the earth's shadow,  

DLR